ECMWFFLT2_925_thetae_162.txt.gz
Theta_e
342 342 343 342 341 342 342 340 342 341 340 341 340 340 339 339 339 339 340 339 337 335 335 336 337 335 331 328 329 329 330 330 332 328 319 314 312 316 326 331 330 330 330 330 330 329 329 327 325 323 322 323 325 325 324 325 331 333 332 333 332 333
342 342 342 342 341 342 342 341 342 340 340 341 342 341 340 340 339 339 339 339 337 333 334 336 337 335 331 330 330 330 330 331 332 331 322 315 313 314 322 328 329 330 330 330 330 328 327 325 323 322 323 326 327 329 328 327 331 332 332 332 332 333
341 342 342 342 341 341 342 342 341 341 341 342 342 341 341 340 339 338 339 339 336 332 331 333 335 336 334 334 333 332 332 331 332 332 325 317 316 315 318 323 326 328 328 328 328 326 325 324 325 325 326 328 329 331 330 329 331 332 332 332 333 333
340 342 341 341 342 341 342 342 342 341 341 342 342 341 341 340 338 337 338 338 335 332 330 330 331 332 332 334 335 335 334 333 332 332 327 318 316 318 317 320 324 326 325 324 324 324 325 325 326 327 328 328 330 331 332 331 331 332 332 333 333 333
340 341 340 341 342 342 343 342 342 342 342 342 342 340 340 339 337 336 336 335 333 331 330 329 330 329 329 330 331 331 332 333 333 332 330 319 315 319 321 322 324 324 323 322 322 323 324 325 327 328 329 329 330 331 332 332 332 333 333 334 334 334
341 341 339 341 342 342 343 342 342 343 341 342 342 340 340 339 337 336 336 334 334 333 332 332 331 330 330 331 331 330 328 330 332 332 330 321 314 315 318 318 319 323 326 325 326 327 328 328 331 332 331 329 329 331 332 333 333 333 334 335 335 335
342 341 340 341 341 341 343 342 342 342 342 342 342 340 340 339 336 336 336 334 335 334 334 334 332 331 332 333 334 333 328 327 329 331 330 321 313 315 319 318 322 328 330 331 331 331 331 332 335 336 333 330 331 332 333 334 335 335 335 335 336 336
342 341 341 341 340 341 343 342 342 342 342 342 341 340 340 338 336 336 336 334 334 335 334 335 334 333 333 335 334 332 331 329 327 329 328 319 312 320 328 329 330 332 332 332 332 332 334 335 338 338 336 334 334 335 335 335 335 335 334 334 335 336
342 341 341 341 340 342 343 342 342 342 342 342 341 340 339 338 337 336 337 335 334 335 336 336 336 334 334 336 334 332 333 331 327 326 324 317 318 327 333 334 333 333 333 333 334 336 338 338 339 338 337 336 335 335 334 335 334 334 333 334 334 335
341 341 341 341 341 341 342 342 341 342 341 341 341 340 339 338 337 337 337 335 334 336 337 337 338 335 334 335 334 332 333 332 326 322 320 322 329 333 333 332 331 332 334 336 338 339 339 339 339 338 337 336 335 334 334 334 334 333 334 334 335 335
340 341 342 342 342 341 341 341 340 340 340 340 340 339 339 338 338 338 338 336 334 335 337 336 337 337 335 334 333 333 334 334 327 321 323 331 334 333 332 331 331 334 337 340 339 338 339 339 338 337 336 336 335 334 334 334 334 335 336 336 335 335
341 342 344 343 343 341 341 341 340 340 340 340 339 339 338 338 339 339 339 337 333 335 336 334 336 337 335 334 333 333 335 335 331 327 329 334 334 333 333 331 333 339 340 339 337 336 338 338 337 336 336 336 335 335 335 335 336 336 337 336 335 334
342 343 344 344 344 342 341 342 341 340 340 340 340 339 338 338 339 339 340 337 332 334 335 335 336 336 336 334 332 335 336 336 335 333 333 334 335 335 334 332 336 339 337 336 336 337 337 336 336 336 336 336 336 337 337 337 336 336 335 335 334 335
343 344 344 344 344 343 341 341 342 341 341 341 340 339 339 339 340 340 340 338 333 332 333 335 335 336 337 333 333 336 337 338 337 336 335 334 335 336 335 335 337 335 334 336 337 337 336 336 336 336 336 336 337 337 337 337 335 335 335 333 332 334
343 344 344 345 345 344 341 341 343 342 342 342 341 340 340 340 341 341 341 339 336 333 332 335 335 336 338 334 333 336 337 339 338 337 336 335 335 336 336 337 337 336 338 338 338 337 337 336 337 337 337 337 337 335 336 336 336 335 335 333 331 332
343 344 344 345 345 344 342 341 343 343 343 342 341 341 340 341 341 342 342 340 338 335 333 333 334 337 339 336 334 336 338 338 338 337 335 334 334 334 334 336 339 339 340 339 338 338 338 337 337 337 337 337 336 336 336 336 335 334 334 332 331 332
343 344 345 345 345 345 342 342 343 343 343 343 342 342 341 342 343 343 342 339 337 335 334 333 333 337 340 339 336 337 338 337 338 337 334 333 333 332 332 335 339 340 340 340 339 340 339 338 338 336 336 336 335 336 336 335 333 332 332 331 330 330
344 343 344 345 345 345 343 342 343 343 343 343 343 343 343 343 344 343 341 338 336 335 335 333 333 337 339 339 338 338 338 336 337 336 333 333 333 332 334 337 340 341 340 340 340 340 339 338 337 335 334 334 334 335 335 333 331 331 331 330 329 330
344 343 344 344 345 345 344 343 343 344 343 344 345 344 344 343 343 342 339 337 336 335 333 331 333 338 339 339 338 336 335 334 334 334 333 334 335 336 337 339 341 341 340 340 340 339 339 338 335 333 332 333 334 333 334 334 330 329 331 330 330 330
344 343 343 344 344 344 344 343 343 344 344 345 345 344 343 342 341 339 338 336 335 335 333 330 335 339 339 338 337 335 335 332 331 332 333 335 337 338 339 340 340 340 341 341 340 339 339 336 332 331 330 331 332 330 332 333 330 330 330 329 330 330
344 344 343 343 344 344 344 344 344 344 345 345 344 344 342 341 339 338 337 336 334 336 335 331 335 338 338 338 336 337 337 332 330 333 336 338 339 340 339 340 340 340 341 341 339 339 338 334 330 328 326 329 333 331 332 332 330 330 330 329 330 329
344 344 343 343 343 343 344 345 345 344 344 344 344 343 343 341 339 337 336 335 334 336 332 329 334 337 338 338 337 339 338 332 334 338 339 339 340 341 340 340 340 341 340 339 338 338 336 332 329 327 327 332 335 334 332 331 329 330 330 330 330 330
344 344 343 343 342 343 344 344 345 345 344 344 344 343 343 340 338 337 337 335 335 336 329 326 335 338 338 338 337 339 339 336 338 340 340 339 340 341 340 340 340 340 339 338 337 337 335 331 329 328 329 332 335 337 336 331 329 329 329 330 330 330
344 344 342 343 342 342 343 344 344 344 344 344 343 343 343 341 339 337 337 336 336 336 329 329 337 338 338 338 336 340 341 340 340 340 340 339 340 340 340 340 341 339 338 336 336 336 333 331 330 328 329 330 331 336 339 333 329 329 329 330 330 329
344 343 342 342 342 342 343 344 343 343 344 343 343 343 342 341 340 338 338 337 337 336 332 333 338 338 338 339 338 340 342 341 341 340 339 339 340 340 340 341 340 339 337 335 335 334 332 330 330 328 328 331 331 336 340 334 329 330 327 327 327 326
344 343 342 342 342 342 343 343 343 343 343 343 343 343 342 341 340 338 337 337 337 336 333 334 338 339 340 340 339 340 341 341 340 338 338 339 341 340 340 340 339 338 337 334 333 333 332 330 330 329 327 330 330 333 335 331 331 333 329 326 325 325
344 343 342 342 341 342 343 343 343 343 343 343 342 342 342 342 340 338 337 337 336 336 335 334 337 339 341 341 341 340 340 340 339 337 338 340 341 340 340 340 338 336 335 334 331 331 333 331 329 329 328 329 328 328 329 329 332 334 332 329 326 324
343 343 342 342 342 342 342 343 342 342 342 342 342 342 342 342 341 339 338 337 336 337 337 335 335 338 340 341 342 341 340 340 338 338 340 341 340 339 339 339 337 335 334 333 330 330 332 332 329 328 328 328 327 327 327 327 329 330 332 333 329 326
343 343 343 342 342 342 342 342 342 342 342 342 342 342 342 341 341 340 339 339 338 338 338 337 336 336 337 340 341 341 340 340 338 339 341 341 340 339 338 337 336 334 334 332 330 330 331 331 329 328 327 327 326 325 325 325 325 325 328 331 330 329
343 343 343 342 342 342 342 342 342 342 342 342 342 342 342 341 341 340 340 340 340 339 339 338 338 337 338 339 341 341 340 339 339 340 341 341 340 338 336 334 333 333 332 331 329 330 330 329 328 327 326 326 326 325 324 323 324 323 324 325 327 326
343 343 343 342 342 342 342 342 342 342 342 341 342 342 342 341 341 341 340 340 340 339 339 339 339 340 340 341 341 340 340 339 339 341 341 340 339 338 336 333 333 332 331 331 329 329 329 328 328 326 325 325 325 325 324 323 322 322 323 323 325 324
343 343 343 342 342 342 342 342 342 342 342 342 341 342 342 341 341 341 340 338 338 339 339 339 339 340 341 341 341 339 339 339 340 341 340 339 339 338 336 333 333 332 331 330 329 329 329 327 327 326 325 324 324 324 323 322 322 322 322 322 323 322
343 343 343 342 342 342 341 342 342 342 342 342 342 342 342 342 341 340 339 337 337 339 339 339 339 339 340 340 340 339 338 339 340 340 339 338 338 337 335 333 332 332 331 330 330 328 328 327 326 326 325 324 323 323 322 321 321 321 321 321 321 319
343 343 342 342 342 342 341 342 342 342 342 341 342 342 342 342 341 341 340 338 338 339 339 339 339 340 341 340 340 339 337 338 339 339 338 337 336 335 333 332 332 331 330 329 329 328 327 326 325 325 324 323 322 322 321 321 321 320 320 320 319 318
342 342 342 342 342 342 342 342 342 342 342 342 342 342 342 341 341 341 341 339 339 339 339 339 339 339 340 340 340 339 337 339 339 338 337 336 335 334 332 331 331 330 329 328 328 327 326 325 324 324 324 323 322 321 321 320 320 319 319 318 318 318
342 342 342 342 342 342 342 342 342 342 342 341 341 341 341 341 342 341 341 341 340 340 339 339 338 338 338 338 338 338 338 339 339 337 337 336 334 333 332 331 330 329 328 327 327 326 325 324 323 323 323 323 322 321 320 319 318 318 318 317 318 317
342 342 342 342 342 342 342 342 341 342 342 342 341 341 341 341 342 341 341 341 340 340 340 339 339 337 337 337 338 338 339 339 338 337 336 335 334 333 331 331 330 329 328 327 326 325 324 324 322 322 322 322 321 319 318 317 317 318 318 317 318 318

ECMWFFLT2_925_thetae_168.txt.gz
Theta_e
344 344 343 343 342 342 341 337 336 337 337 338 339 339 339 339 339 339 340 341 341 341 340 340 340 340 339 337 337 335 330 328 331 325 315 312 316 326 328 324 322 321 323 324 324 325 324 324 324 324 323 323 323 326 328 329 329 328 329 330 331 331
344 344 343 343 342 342 342 339 337 340 339 338 340 339 339 339 340 339 340 341 340 340 339 339 340 340 339 338 336 333 328 328 332 327 315 311 315 325 329 325 324 323 324 325 324 325 325 325 324 324 325 326 326 328 329 330 330 330 330 331 331 331
344 343 343 342 342 342 341 339 338 340 339 339 340 339 339 340 339 339 340 340 339 339 338 338 339 339 338 337 333 328 328 329 331 329 318 313 314 322 330 328 326 327 327 327 327 326 325 324 324 326 328 328 328 329 329 330 330 331 331 331 332 332
344 343 342 342 342 342 341 340 338 339 340 340 339 338 339 339 339 338 339 339 338 338 337 337 338 338 338 335 330 326 328 329 330 331 323 314 313 318 326 329 328 328 328 328 327 325 324 325 327 330 331 331 330 329 328 330 331 331 331 332 333 333
343 342 342 342 342 342 342 341 339 339 340 340 339 338 339 339 339 337 338 338 336 336 335 336 337 337 337 332 328 327 329 329 330 332 327 318 315 314 320 325 326 326 326 325 324 324 327 329 331 333 335 333 330 329 329 331 332 332 332 333 334 334
343 342 342 343 342 341 342 340 339 339 339 339 339 339 339 339 339 337 338 337 335 336 335 335 336 336 335 330 327 328 329 330 330 331 329 322 317 315 317 319 320 322 323 323 324 328 330 330 331 335 336 335 331 330 332 333 333 334 334 334 334 335
342 342 342 342 341 341 341 340 339 339 339 339 339 339 339 338 339 338 337 336 334 334 334 333 335 335 333 330 328 329 329 330 330 331 331 325 318 317 317 318 319 321 321 324 328 331 331 331 334 336 337 336 334 333 334 334 334 334 334 334 334 334
342 342 342 341 341 340 340 339 340 339 339 339 339 340 339 338 339 337 337 336 332 332 332 331 332 333 333 332 331 331 331 332 332 331 331 327 320 316 318 321 320 320 323 329 332 332 333 335 336 337 337 337 336 335 334 334 334 334 334 333 333 333
342 341 341 340 340 340 340 339 339 339 339 339 339 340 339 338 339 337 337 336 333 332 331 329 329 329 330 332 331 331 331 331 331 330 331 328 321 316 317 319 319 323 329 332 332 334 336 336 337 338 338 336 335 334 333 333 333 334 334 333 334 334
341 341 340 340 340 340 339 339 339 339 339 339 339 339 339 338 338 338 337 336 333 331 330 328 327 327 327 327 326 327 328 328 328 328 329 329 323 316 314 317 322 329 331 331 333 336 336 335 337 338 338 336 334 334 333 333 334 333 334 334 335 334
341 341 340 340 339 340 339 339 339 339 339 339 338 339 339 338 337 337 336 335 333 331 330 329 328 329 328 326 326 328 329 329 328 327 327 328 326 318 316 323 329 331 331 332 335 336 336 336 337 337 337 336 335 335 335 335 335 335 335 335 336 335
341 340 339 339 339 340 339 339 339 339 339 339 338 338 338 337 337 336 335 334 333 332 332 331 330 330 329 329 330 332 332 331 329 329 328 328 326 319 320 329 331 330 332 334 335 336 337 336 336 336 336 335 336 336 336 336 336 335 335 334 334 334
341 339 339 339 339 340 339 339 339 338 339 339 339 338 337 337 337 336 336 334 333 333 333 332 331 331 331 332 332 333 333 333 331 330 330 329 324 319 323 331 330 330 334 335 336 337 337 336 335 335 335 335 336 336 336 336 336 335 334 333 332 332
340 338 339 339 339 340 339 338 339 338 339 339 339 338 337 337 337 336 336 335 334 334 333 333 332 332 333 334 334 334 334 333 331 331 331 328 324 323 327 331 331 331 333 336 337 337 336 336 336 335 336 336 336 336 335 335 335 334 333 332 332 332
340 338 338 339 339 340 340 338 338 338 338 339 338 338 337 337 338 337 336 335 334 334 334 333 333 333 334 335 335 335 335 333 332 332 332 329 327 328 330 332 333 332 331 335 338 337 336 336 336 336 336 336 336 335 335 335 335 333 330 330 331 332
340 339 339 338 338 339 340 339 338 338 337 337 338 337 337 337 338 337 336 335 334 335 335 334 333 334 335 335 335 335 335 334 332 333 333 333 332 332 332 333 333 332 333 337 338 338 337 336 336 336 336 336 335 335 335 335 334 331 329 330 332 332
339 339 339 339 338 338 339 338 337 337 336 336 337 337 337 338 338 337 337 335 334 335 336 335 334 334 334 334 334 335 335 334 333 333 334 335 335 335 334 334 334 335 336 338 339 338 338 337 337 337 337 335 333 333 335 335 332 330 329 330 331 331
339 339 339 339 337 337 338 338 337 337 337 336 336 337 337 338 338 337 336 335 335 336 336 336 335 334 334 334 334 335 335 334 333 333 334 335 336 336 334 334 336 337 339 340 339 338 338 338 338 337 334 331 332 333 334 334 330 329 330 329 329 331
340 340 339 339 338 337 338 338 337 337 337 337 336 337 338 338 338 337 336 335 336 337 337 337 336 334 334 334 334 335 335 335 334 333 333 334 336 336 334 335 337 338 340 340 339 339 339 338 337 333 328 327 330 332 333 333 329 328 330 329 330 332
340 340 340 339 338 337 338 338 338 338 338 337 337 338 338 338 337 337 336 335 336 337 337 337 337 336 335 335 335 335 336 336 335 333 333 335 337 337 335 334 336 338 339 339 339 339 339 338 336 330 326 328 330 330 332 332 329 329 330 329 331 333
340 340 340 339 339 338 338 339 338 339 339 339 338 338 338 337 335 335 334 335 335 336 338 338 338 337 336 335 335 335 336 336 335 334 334 336 337 337 336 334 336 338 339 339 339 340 338 338 335 329 328 331 330 329 330 331 329 329 329 330 332 333
340 340 340 340 339 339 339 339 339 339 340 339 339 338 338 336 334 334 334 335 336 337 338 339 339 338 338 337 336 336 335 335 336 335 336 337 337 337 336 335 336 338 339 339 340 339 338 337 333 328 328 331 331 329 328 329 329 329 329 331 331 332
340 340 340 340 339 339 339 339 339 339 339 340 339 338 337 335 335 335 335 336 337 338 339 339 340 340 340 339 338 337 334 333 335 337 337 337 336 336 336 335 336 338 339 339 340 339 338 336 331 327 327 331 333 332 330 328 327 328 329 330 331 331
341 341 340 340 340 339 339 339 339 340 340 340 339 337 337 336 337 338 338 338 338 339 340 340 341 341 341 339 337 336 334 333 334 337 337 336 336 335 334 335 336 339 339 339 339 338 337 334 331 329 328 329 328 330 335 329 324 325 327 329 330 330
341 341 341 341 341 340 341 340 340 341 340 340 339 339 339 339 339 340 340 340 339 340 341 341 342 342 341 337 336 335 333 333 335 337 337 337 337 335 333 332 335 339 339 339 339 337 335 331 330 330 329 330 329 332 337 330 324 324 325 328 329 329
341 341 341 342 342 342 341 341 341 341 341 341 341 340 340 340 340 340 340 341 340 341 341 342 342 342 340 336 335 334 332 332 335 336 336 336 336 336 333 333 336 339 339 339 339 337 334 330 329 329 328 329 329 331 333 328 327 327 323 325 327 328
341 341 341 342 342 342 342 342 341 341 341 341 341 340 340 340 341 340 341 341 342 342 342 342 342 342 339 335 335 334 332 333 335 335 334 335 336 336 335 335 338 340 339 339 339 337 334 330 328 328 327 326 326 327 329 328 330 330 325 324 324 325
341 341 341 342 342 342 342 342 342 341 342 341 341 341 340 341 341 341 341 342 342 343 342 342 341 339 337 335 335 333 331 332 335 334 333 333 336 338 337 338 340 340 339 339 339 338 334 331 329 328 327 327 326 326 327 327 327 327 327 325 323 323
341 341 341 342 342 342 342 342 342 342 342 342 341 341 341 341 341 342 341 341 342 342 342 341 339 337 336 335 335 332 329 331 334 334 333 333 335 339 340 339 339 339 338 338 336 335 334 332 331 329 328 327 326 326 327 327 326 324 324 325 323 322
341 341 341 342 342 342 342 342 342 342 342 342 341 341 341 341 342 341 341 341 341 341 341 340 338 336 336 335 335 333 329 330 334 334 334 335 337 340 341 339 339 338 337 336 333 331 331 332 331 330 329 327 326 326 326 325 326 324 322 322 322 321
341 341 342 342 342 342 342 342 342 342 342 342 342 341 341 341 341 341 340 340 339 340 340 339 337 337 337 336 336 334 331 332 335 335 336 337 339 340 340 338 338 339 337 336 335 331 329 331 331 329 329 327 326 326 325 325 325 325 323 322 321 321
341 341 342 342 342 342 342 342 342 342 342 342 342 342 341 341 341 340 340 339 339 338 338 338 338 338 337 336 336 335 333 333 335 337 337 339 339 339 339 338 338 339 337 336 335 331 329 330 331 330 328 327 326 326 325 325 325 325 324 322 321 320
341 341 342 342 342 342 342 342 342 342 342 342 342 341 341 341 341 341 341 340 339 339 339 339 339 338 337 336 336 336 334 333 334 336 338 339 340 339 339 338 338 338 336 334 333 331 330 330 330 329 328 326 325 325 325 325 324 324 324 322 321 319
341 341 341 342 342 342 342 342 341 341 341 341 341 341 341 341 341 341 341 341 340 340 340 340 340 339 338 336 336 336 335 334 333 335 338 340 340 340 338 336 337 337 335 332 331 331 330 330 329 328 327 326 325 324 324 323 323 323 323 322 320 319
341 341 341 342 342 342 342 342 341 341 341 341 341 341 341 341 341 341 341 341 341 341 340 340 340 340 339 338 336 336 335 335 334 335 338 339 339 339 338 336 335 335 333 331 330 330 330 329 328 327 326 325 324 323 323 322 322 322 321 321 321 320
341 341 341 341 342 341 342 341 341 340 340 340 340 341 341 340 341 341 341 341 341 340 340 340 340 340 340 339 337 337 336 336 335 335 337 338 338 338 337 335 334 334 332 330 330 330 329 328 327 326 325 324 323 323 322 322 321 320 320 320 321 321
341 341 341 341 341 341 341 341 341 340 340 340 340 340 341 340 341 341 340 341 340 340 340 340 340 340 340 340 339 338 337 337 336 335 336 337 337 337 337 335 334 334 332 330 330 330 329 328 327 325 324 323 323 322 321 321 320 319 319 320 320 320

ECMWFFLT2_925_thetae_174.txt.gz
Theta_e
346 345 346 345 344 344 341 340 341 340 340 341 341 340 342 342 341 342 341 341 341 342 342 341 341 340 338 337 337 334 329 327 324 321 323 325 323 320 320 321 320 319 319 319 320 323 325 326 326 325 324 324 323 328 333 334 333 331 330 331 332 334
346 346 346 345 344 344 342 341 342 342 341 341 341 340 342 342 342 343 342 342 342 343 342 341 341 341 340 340 338 333 329 328 326 320 317 322 326 324 321 320 321 320 320 321 322 326 329 327 325 324 323 324 327 332 334 334 334 333 332 333 334 334
346 346 346 345 344 344 343 342 343 343 342 342 342 342 343 343 343 343 343 343 343 343 342 341 341 341 341 341 339 334 330 328 328 323 315 316 322 327 325 320 321 321 322 323 325 330 331 329 327 325 325 328 332 334 334 333 333 333 334 334 334 334
346 346 346 345 344 344 343 342 342 343 343 343 343 342 344 343 343 343 344 343 343 343 342 342 341 342 341 340 340 336 332 329 329 326 317 316 318 325 327 322 319 320 323 326 328 330 328 327 329 329 331 333 334 334 334 333 333 333 333 334 335 334
346 346 346 345 344 344 343 341 342 343 342 343 343 343 343 343 343 343 343 343 343 343 343 342 342 342 340 340 340 339 337 333 334 332 323 325 328 328 329 329 324 322 326 330 330 329 328 328 330 331 333 334 335 334 334 334 334 335 334 335 335 334
346 346 345 345 343 343 343 341 341 342 342 342 343 343 343 343 343 343 343 343 344 343 342 341 342 341 340 340 340 340 340 337 339 339 331 332 335 333 334 334 331 328 330 331 329 328 329 332 333 332 334 334 335 335 334 334 335 336 336 336 336 335
345 346 346 344 343 343 343 341 341 342 342 342 343 342 342 342 342 343 343 342 343 343 342 341 340 341 340 340 340 340 341 340 341 341 337 334 333 333 334 333 332 331 331 329 328 329 331 333 334 333 333 334 335 336 336 335 335 336 336 337 336 335
344 345 345 344 343 343 342 341 341 342 342 342 343 342 342 342 341 343 343 341 342 341 340 340 340 340 340 339 339 340 341 341 340 339 338 335 333 332 332 333 332 331 330 327 328 330 331 332 333 333 333 333 335 335 336 336 336 336 336 336 336 335
344 344 344 344 342 342 342 341 341 342 341 342 342 342 341 342 341 342 342 341 341 340 338 338 339 339 339 339 338 339 340 340 339 339 338 336 335 334 333 333 332 330 328 328 329 332 332 333 333 333 333 333 334 336 337 337 337 336 336 336 336 336
344 344 344 343 342 342 342 341 341 342 342 342 342 342 341 342 341 340 341 341 340 338 337 337 338 338 337 338 338 338 338 340 340 339 339 338 337 336 335 334 332 329 327 329 331 333 333 333 332 332 332 333 334 337 337 338 338 336 335 335 336 337
344 344 343 343 342 342 342 341 341 341 341 342 341 341 341 341 341 340 339 340 340 338 336 337 337 337 337 338 337 337 338 339 339 339 339 339 338 337 337 336 333 330 330 331 332 334 334 333 332 331 332 333 336 337 338 338 337 336 335 335 335 335
344 344 343 343 343 343 343 342 342 341 341 342 341 341 341 341 340 340 340 339 340 338 335 336 336 336 337 337 337 337 338 338 339 339 339 339 339 338 337 336 334 334 334 335 335 335 335 333 331 331 331 334 337 338 338 337 335 336 335 335 334 333
344 345 344 343 343 342 343 342 342 341 340 341 342 341 341 340 340 340 340 339 339 338 336 335 335 335 336 337 338 337 338 338 339 339 340 340 340 338 337 335 333 333 334 335 334 335 335 333 332 332 332 335 338 339 338 337 335 335 335 335 334 332
345 345 344 343 343 342 342 342 341 340 340 341 341 341 340 340 340 340 340 340 339 338 336 335 334 334 335 337 337 337 338 338 339 340 339 339 338 337 336 334 331 331 333 334 333 335 334 333 332 332 336 337 339 340 338 337 336 336 334 334 333 331
345 345 344 344 343 342 342 342 341 340 340 341 340 340 340 340 340 340 340 340 339 338 337 336 336 335 335 337 338 338 338 338 339 339 339 339 338 338 337 333 331 332 332 333 333 334 334 333 333 333 339 340 339 340 338 337 337 335 334 332 332 332
345 345 345 344 343 343 343 342 341 340 340 341 340 340 340 340 340 340 339 339 339 339 337 336 336 336 335 337 338 338 338 338 339 338 339 339 338 338 336 333 332 333 334 334 332 333 334 334 335 336 341 341 340 340 338 338 337 335 333 332 332 332
345 346 345 344 343 342 343 342 341 341 340 341 340 340 339 339 340 339 338 338 339 339 338 337 337 337 336 337 338 338 338 338 339 338 339 340 337 337 336 335 335 335 335 335 332 332 334 334 336 339 341 341 340 339 337 338 337 334 332 332 332 334
345 345 345 344 343 342 342 342 341 341 341 340 340 340 338 338 339 339 338 337 338 339 338 338 337 338 337 336 337 338 338 338 338 338 339 339 337 337 337 337 337 338 337 335 333 332 334 335 337 340 341 340 339 338 337 337 336 333 332 332 333 335
345 344 344 344 343 342 342 342 341 340 341 340 340 339 338 338 338 339 339 338 338 339 338 338 338 339 338 337 338 337 338 339 338 338 338 338 338 338 338 339 339 340 338 336 334 334 336 337 338 340 340 339 338 337 337 336 335 334 333 333 333 336
344 344 344 343 342 342 341 342 341 341 341 340 340 339 338 339 338 338 338 339 338 339 338 338 338 339 339 338 338 338 338 339 338 338 337 338 338 338 339 340 339 340 339 337 335 335 336 337 338 340 339 338 337 337 337 337 336 334 333 333 333 335
344 343 343 343 342 342 342 341 341 340 341 340 339 339 339 339 338 338 338 338 339 339 338 338 339 339 339 339 339 338 339 339 339 338 338 338 338 338 339 339 339 339 337 337 336 336 337 338 338 339 337 337 337 336 337 337 336 335 334 334 333 335
343 343 342 342 342 341 341 341 341 341 340 340 339 339 339 339 338 338 338 338 339 339 338 339 339 339 340 339 339 339 339 339 338 338 339 339 338 339 339 338 338 338 337 336 336 338 339 339 339 336 333 335 337 336 336 336 335 335 334 333 334 335
343 342 342 342 342 341 341 341 341 341 340 340 340 339 339 339 338 338 338 339 339 339 338 339 339 340 340 340 340 340 339 339 339 339 339 339 339 339 339 338 338 337 336 336 336 339 339 339 340 336 334 336 337 336 335 335 335 334 334 334 334 335
342 342 342 342 342 342 341 342 342 342 341 340 340 340 339 338 337 338 339 339 339 339 338 339 339 340 340 340 341 340 339 338 338 338 339 339 339 338 337 338 338 337 337 335 335 339 340 339 338 337 337 336 337 336 334 334 335 333 333 334 334 334
343 343 343 343 342 342 342 341 342 341 341 340 340 340 339 338 337 338 338 338 339 339 339 339 339 340 340 341 341 341 340 339 339 339 338 338 338 338 337 337 337 336 337 336 335 340 340 339 338 337 337 336 337 337 334 334 334 332 333 333 333 333
344 343 343 343 342 342 341 341 341 341 341 341 340 340 339 339 338 338 338 338 338 338 339 339 339 340 340 341 342 341 341 341 340 339 338 338 337 338 337 336 336 336 336 336 336 339 339 338 337 336 335 334 335 336 334 333 331 331 333 332 331 332
344 344 343 343 342 341 341 341 341 341 341 341 341 340 339 339 339 338 338 338 338 339 338 339 340 340 341 342 342 342 342 341 340 339 339 338 338 337 336 336 336 335 335 336 337 339 338 338 337 336 334 332 332 334 334 333 330 329 332 332 330 330
344 344 343 343 342 342 342 341 341 341 340 341 341 340 340 340 339 339 339 338 339 339 339 339 340 341 341 341 342 342 343 341 339 338 338 338 337 337 336 336 337 336 336 337 338 339 338 338 337 337 334 332 333 334 334 333 331 330 330 331 331 329
344 343 343 343 343 342 342 342 341 340 340 340 340 341 340 340 339 339 340 339 340 340 340 340 341 342 342 341 342 343 343 342 340 339 339 338 337 337 337 337 338 338 338 339 339 339 340 339 338 338 336 333 334 335 334 333 332 331 330 330 331 330
344 343 344 344 344 343 343 342 342 341 341 340 341 341 340 340 340 340 340 341 341 341 341 342 342 342 343 343 343 343 343 341 340 340 339 339 337 338 338 337 338 339 339 340 340 341 341 341 339 339 337 335 335 335 334 333 332 331 332 331 330 330
344 344 345 345 344 343 343 343 342 342 341 341 342 342 341 341 341 341 342 342 342 342 342 342 342 342 344 344 343 343 343 341 341 340 340 339 338 338 338 337 338 340 341 342 342 342 342 341 341 339 337 336 335 335 334 333 332 332 331 331 329 329
344 344 346 346 344 344 344 343 343 343 342 343 343 343 343 342 342 342 343 343 342 342 343 342 342 343 344 344 343 343 342 341 340 341 341 339 338 338 336 337 338 340 343 344 343 342 342 341 341 339 338 336 336 335 334 333 333 332 331 330 330 329
345 346 346 346 344 344 344 344 343 343 343 343 343 343 344 343 343 343 343 343 343 343 343 343 342 343 343 343 343 343 342 341 341 341 341 340 339 339 338 337 338 340 341 342 342 341 341 342 341 339 338 337 335 334 334 333 332 332 331 331 330 328
346 346 347 346 345 345 345 344 344 343 343 344 344 343 344 343 344 344 344 344 344 344 343 343 343 343 343 343 343 343 342 342 341 341 341 340 340 339 339 339 338 338 339 340 341 342 341 342 341 340 339 337 334 333 333 333 332 332 332 331 331 330
348 348 347 346 345 345 345 344 344 344 344 344 344 344 344 344 344 344 345 345 344 344 344 345 345 344 344 343 343 342 342 341 340 340 340 339 339 339 340 340 339 338 338 338 340 341 342 342 342 341 339 337 333 331 331 332 332 332 331 331 331 330
349 348 348 347 346 345 346 345 345 344 344 344 344 344 344 344 345 345 345 345 345 344 345 346 346 344 344 344 343 342 341 340 341 340 339 338 338 338 338 339 339 338 339 338 338 339 340 340 341 340 338 335 333 331 330 330 331 331 330 330 330 330
349 348 348 347 346 346 346 345 345 345 345 344 344 344 344 344 345 346 346 345 345 345 346 347 346 345 344 343 343 342 340 340 339 339 338 338 338 337 337 338 338 338 338 338 337 337 337 338 339 338 336 334 333 332 331 330 330 330 331 331 330 329

ECMWFFLT2_925_thetae_180.txt.gz
Theta_e
344 342 342 343 343 343 341 340 340 340 340 339 340 340 340 340 340 341 341 341 340 340 340 339 339 340 339 338 339 341 339 335 332 326 321 320 321 322 323 323 323 323 324 325 326 326 323 317 314 318 319 317 319 322 328 335 336 334 334 334 335 334
344 343 343 344 343 343 341 342 342 341 341 340 341 341 340 341 341 342 342 340 340 341 341 341 340 339 338 337 337 339 339 336 332 327 322 322 321 320 320 321 321 321 322 322 322 320 316 312 313 320 320 318 321 326 332 335 335 334 334 335 335 334
345 345 344 344 344 343 342 343 343 343 342 340 341 342 341 342 343 342 342 341 340 342 342 342 340 340 340 339 337 336 337 334 331 328 324 322 318 317 317 317 318 318 318 318 316 314 312 314 320 328 326 323 325 329 334 335 334 334 335 335 335 334
347 346 345 345 344 344 342 342 344 343 341 341 341 343 342 343 344 342 343 342 340 342 343 343 340 341 341 340 339 336 335 332 328 327 324 322 318 315 314 314 314 314 314 314 312 312 317 322 326 331 330 327 329 332 335 335 334 334 336 337 336 335
347 346 346 345 345 345 342 342 344 343 341 341 342 344 342 342 345 344 344 343 342 342 343 343 340 340 341 341 341 338 336 332 326 324 323 322 321 317 313 312 312 311 311 311 312 318 325 327 328 331 332 331 330 333 335 335 334 334 336 337 336 335
347 346 346 345 345 345 343 343 343 343 341 342 343 342 343 344 345 345 345 343 343 344 343 343 341 339 340 340 341 340 337 333 327 326 324 320 323 322 316 312 314 316 315 312 318 326 329 328 327 328 329 331 332 334 335 335 335 334 335 337 336 335
347 346 346 345 345 344 342 343 342 342 342 343 343 342 344 345 345 345 345 344 344 344 343 343 341 340 341 340 341 341 339 336 332 334 333 324 326 330 324 318 321 327 325 320 324 329 330 328 326 326 327 328 331 334 335 335 336 336 336 337 337 335
347 346 346 345 345 343 342 343 343 342 342 343 343 342 343 344 344 345 344 344 344 344 344 343 342 341 340 340 340 340 340 339 336 338 338 330 329 333 332 327 325 330 331 326 327 328 329 328 326 328 330 329 331 334 335 336 336 337 337 337 338 335
347 347 346 345 345 342 341 343 342 342 342 342 343 342 343 343 343 344 344 344 344 344 345 343 343 342 340 339 340 340 340 341 338 338 339 335 331 333 335 332 328 331 332 329 329 329 327 327 327 328 330 330 333 335 335 336 336 336 335 337 339 337
347 347 346 345 345 341 341 344 342 342 342 342 343 342 342 343 343 344 344 344 344 344 345 343 343 343 341 340 340 340 340 341 340 339 340 336 332 334 335 332 331 332 331 330 329 328 327 328 328 328 329 330 333 334 335 336 335 335 334 337 340 337
347 347 346 345 345 342 342 344 342 342 342 342 343 342 341 343 343 344 344 344 344 345 345 344 343 343 341 340 341 340 339 340 340 339 340 338 334 334 334 331 332 332 331 330 329 326 327 329 329 328 329 330 334 335 335 336 335 335 335 337 339 336
347 346 346 345 345 343 343 344 342 342 342 341 342 342 342 343 342 343 343 343 344 344 345 344 343 342 340 339 340 340 339 340 340 340 340 340 337 335 335 333 332 332 331 329 328 329 330 331 330 328 326 329 336 337 336 336 334 335 335 337 338 336
347 346 345 345 345 343 343 344 342 342 343 341 342 342 342 342 342 343 344 343 344 344 344 344 343 342 340 339 340 339 339 339 339 340 341 341 339 337 336 336 335 334 333 330 331 333 332 332 330 329 329 331 336 338 337 336 335 335 335 335 336 336
347 347 345 345 345 344 343 344 342 342 343 342 342 343 341 342 342 343 344 344 344 344 343 342 343 343 341 340 340 339 339 339 338 339 341 341 341 340 339 338 338 336 334 333 333 333 331 330 330 330 333 334 336 337 338 337 336 336 335 335 336 336
348 347 346 346 346 344 343 344 342 342 343 342 342 342 342 341 342 343 345 344 343 343 342 340 341 341 340 340 339 339 339 338 338 338 340 341 340 342 341 339 338 337 335 333 332 330 328 330 330 331 334 337 337 338 339 337 337 337 335 334 336 337
347 347 347 346 345 344 344 343 343 342 342 342 341 342 342 341 342 343 344 344 343 343 341 338 338 338 338 339 338 338 338 338 338 338 339 341 341 342 342 340 337 337 335 332 330 329 328 331 331 331 335 337 339 340 339 338 337 337 334 334 336 337
347 347 346 346 345 344 343 343 342 342 342 342 341 342 342 342 342 342 343 343 342 342 341 338 336 336 336 337 337 337 338 337 338 339 339 341 341 341 341 338 335 335 334 332 331 330 329 331 331 332 336 339 341 340 339 337 336 335 333 334 336 336
347 347 347 346 346 344 343 343 342 342 343 343 341 341 341 342 342 341 342 342 342 342 341 339 336 336 336 336 336 338 338 337 338 339 339 340 342 341 340 337 336 336 334 332 333 333 331 332 332 333 338 341 341 340 338 336 336 335 333 333 335 336
347 347 347 346 346 345 344 343 342 341 343 343 341 341 340 341 341 341 342 342 342 341 341 339 337 336 336 335 336 338 339 338 337 339 339 340 341 341 339 338 338 337 334 333 333 334 334 333 333 335 340 342 342 340 338 337 337 336 333 333 335 336
348 347 347 346 345 346 345 344 343 342 344 343 341 341 340 340 340 341 341 342 342 341 340 340 337 337 336 335 336 338 339 338 338 339 339 340 341 341 339 338 339 338 335 334 333 334 334 333 335 339 342 342 341 340 338 337 337 336 334 333 335 336
349 348 347 346 346 347 345 345 344 343 344 343 341 342 341 340 340 340 341 342 342 341 340 340 338 338 337 335 336 338 339 339 338 338 338 340 341 340 338 338 340 339 337 336 334 334 333 333 338 342 343 342 340 340 339 338 337 336 335 334 334 335
350 347 348 347 346 346 345 345 345 344 344 343 342 342 342 341 340 340 340 341 342 341 341 340 339 339 338 336 337 338 340 340 338 337 338 339 339 339 339 339 340 340 339 339 337 335 333 334 339 343 343 343 342 341 340 338 338 337 335 334 334 336
350 348 347 347 347 347 346 345 345 344 343 343 343 342 342 341 340 340 340 340 342 341 340 340 339 339 339 338 337 338 339 339 339 339 338 338 339 339 340 340 340 340 340 340 340 338 335 333 336 340 343 343 343 343 342 339 338 337 336 335 335 336
351 349 349 348 347 347 346 346 345 345 343 344 343 342 342 341 340 341 340 340 341 341 340 340 340 339 340 339 338 339 340 339 338 339 339 338 339 339 339 340 340 340 340 340 340 338 336 334 334 339 343 343 343 342 342 341 339 337 336 337 336 336
351 350 349 348 347 347 347 346 346 345 344 343 343 342 342 341 341 341 340 340 340 341 340 340 340 340 340 340 339 339 340 340 339 339 340 339 339 339 339 339 339 339 339 340 339 336 336 337 335 338 341 342 344 343 342 341 340 338 337 337 337 337
352 350 349 348 347 347 347 346 346 345 345 344 343 343 343 341 341 341 341 341 341 340 340 340 340 340 340 341 340 340 341 340 340 340 341 340 340 340 339 339 338 338 338 339 338 337 338 340 339 339 339 340 343 343 341 339 340 340 337 336 336 336
351 350 349 348 347 347 347 346 346 345 345 345 343 343 342 341 341 342 341 341 340 340 340 340 340 340 340 340 341 341 341 340 340 340 340 341 341 340 339 338 338 338 338 338 338 338 339 341 342 341 340 340 340 339 339 338 340 342 339 336 336 335
350 350 349 348 347 347 346 346 346 345 344 344 344 342 342 342 342 342 341 340 340 340 340 340 340 340 340 340 341 341 341 341 341 341 341 341 342 341 339 339 338 338 337 337 337 337 339 340 342 341 341 341 340 339 339 339 337 339 340 339 337 334
349 349 348 348 348 346 345 345 345 345 344 344 344 343 342 343 342 341 341 340 340 340 340 340 340 340 339 340 341 342 343 343 342 342 342 342 342 341 340 339 338 338 337 337 337 336 338 339 340 340 340 340 340 340 340 340 338 337 338 340 339 336
349 348 348 348 347 346 345 345 345 345 344 343 344 343 343 343 342 341 341 341 340 340 341 341 340 340 340 340 341 342 344 344 343 343 342 342 342 341 341 340 339 338 338 338 337 337 337 338 339 339 339 340 340 340 339 338 338 337 338 338 338 337
348 348 348 347 346 346 345 345 346 346 345 343 344 344 343 343 342 342 341 341 341 341 341 341 340 339 340 341 342 343 344 344 344 344 342 342 342 342 341 340 340 339 338 338 338 338 337 338 339 338 339 338 339 340 338 337 337 336 337 337 338 338
348 347 347 347 345 345 345 345 346 345 345 343 344 344 344 343 342 342 342 341 341 341 341 341 340 340 340 341 342 343 344 345 345 344 343 342 342 342 341 340 340 339 339 339 339 339 338 338 339 338 338 337 337 339 338 336 336 336 336 337 337 337
347 347 347 346 346 346 345 345 346 345 345 344 344 344 344 343 343 342 342 342 342 342 341 341 341 341 341 342 343 344 344 345 345 344 343 342 342 341 341 341 340 339 339 339 339 339 339 338 339 338 338 338 338 339 337 335 333 333 335 335 335 335
348 347 347 346 346 346 346 346 345 344 345 344 344 344 344 344 343 343 343 342 342 342 342 341 341 342 341 342 344 344 344 345 345 344 343 342 342 342 341 341 340 339 339 339 339 339 339 338 338 339 339 337 337 337 337 335 332 331 332 334 334 335
348 348 347 347 346 347 347 345 345 344 345 344 344 344 345 344 344 343 343 342 343 343 343 342 342 342 343 344 345 345 345 345 345 344 343 342 342 342 341 341 339 339 339 338 338 339 339 339 339 339 339 338 337 336 336 335 334 333 332 333 334 334
348 348 348 346 346 347 347 345 345 345 345 344 344 345 345 344 344 343 343 343 343 343 343 343 343 343 344 345 346 346 346 346 345 344 343 342 342 342 342 341 341 340 339 338 339 339 340 340 340 339 339 339 337 336 336 334 334 334 332 332 334 334
348 348 347 346 346 347 347 346 346 345 345 345 345 345 345 345 344 343 343 344 343 343 344 344 344 344 345 346 346 346 345 346 345 344 343 343 343 343 343 343 342 342 341 340 340 340 340 339 339 339 338 339 338 336 335 332 332 335 334 333 334 334